Year,Month,Day,Hour,Minute,Value (Times are PST for temperature in C)
2014,08,24,00,00,15.70
2014,08,24,00,01,15.60
2014,08,24,00,02,15.50
2014,08,24,00,03,15.20
2014,08,24,00,04,14.80
2014,08,24,00,05,14.50
2014,08,24,00,06,14.40
2014,08,24,00,07,14.30
2014,08,24,00,08,14.20
2014,08,24,00,09,14.20
2014,08,24,00,10,14.20
2014,08,24,00,11,14.20
2014,08,24,00,12,14.30
2014,08,24,00,13,14.40
2014,08,24,00,14,14.40
2014,08,24,00,15,14.50
2014,08,24,00,16,14.50
2014,08,24,00,17,14.60
2014,08,24,00,18,14.60
2014,08,24,00,19,14.70
2014,08,24,00,20,14.80
2014,08,24,00,21,14.90
2014,08,24,00,22,14.90
2014,08,24,00,23,15.00
2014,08,24,00,24,15.00
2014,08,24,00,25,15.10
2014,08,24,00,26,15.10
2014,08,24,00,27,15.00
2014,08,24,00,28,15.00
2014,08,24,00,29,14.90
2014,08,24,00,30,14.90
2014,08,24,00,31,14.90
2014,08,24,00,32,14.90
2014,08,24,00,33,14.90
2014,08,24,00,34,15.00
2014,08,24,00,35,15.10
2014,08,24,00,36,15.20
2014,08,24,00,37,15.30
2014,08,24,00,38,15.30
2014,08,24,00,39,15.30
2014,08,24,00,40,15.30
2014,08,24,00,41,15.10
2014,08,24,00,42,14.90
2014,08,24,00,43,14.70
2014,08,24,00,44,14.60
2014,08,24,00,45,14.50
2014,08,24,00,46,14.40
2014,08,24,00,47,14.30
2014,08,24,00,48,14.30
2014,08,24,00,49,14.20
2014,08,24,00,50,14.00
2014,08,24,00,51,13.90
2014,08,24,00,52,13.90
2014,08,24,00,53,13.90
2014,08,24,00,54,13.90
2014,08,24,00,55,13.90
2014,08,24,00,56,13.80
2014,08,24,00,57,13.80
2014,08,24,00,58,13.80
2014,08,24,00,59,13.70
2014,08,24,01,00,13.70
2014,08,24,01,01,13.60
2014,08,24,01,02,13.60
2014,08,24,01,03,13.50
2014,08,24,01,04,13.50
2014,08,24,01,05,13.40
2014,08,24,01,06,13.30
2014,08,24,01,07,13.30
2014,08,24,01,08,13.30
2014,08,24,01,09,13.30
2014,08,24,01,10,13.30
2014,08,24,01,11,13.30
2014,08,24,01,12,13.40
2014,08,24,01,13,13.40
2014,08,24,01,14,13.40
2014,08,24,01,15,13.30
2014,08,24,01,16,13.30
2014,08,24,01,17,13.20
2014,08,24,01,18,13.20
2014,08,24,01,19,13.20
2014,08,24,01,20,13.10
2014,08,24,01,21,13.10
2014,08,24,01,22,13.10
2014,08,24,01,23,13.00
2014,08,24,01,24,13.00
2014,08,24,01,25,12.90
2014,08,24,01,26,12.90
2014,08,24,01,27,12.90
2014,08,24,01,28,12.80
2014,08,24,01,29,12.80
2014,08,24,01,30,12.80
2014,08,24,01,31,12.80
2014,08,24,01,32,12.70
2014,08,24,01,33,12.70
2014,08,24,01,34,12.70
2014,08,24,01,35,12.70
2014,08,24,01,36,12.70
2014,08,24,01,37,12.60
2014,08,24,01,38,12.60
2014,08,24,01,39,12.60
2014,08,24,01,40,12.60
2014,08,24,01,41,12.60
2014,08,24,01,42,12.50
2014,08,24,01,43,12.50
2014,08,24,01,44,12.50
2014,08,24,01,45,12.50
2014,08,24,01,46,12.40
2014,08,24,01,47,12.40
2014,08,24,01,48,12.40
2014,08,24,01,49,12.40
2014,08,24,01,50,12.40
2014,08,24,01,51,12.40
2014,08,24,01,52,12.40
2014,08,24,01,53,12.40
2014,08,24,01,54,12.40
2014,08,24,01,55,12.40
2014,08,24,01,56,12.40
2014,08,24,01,57,12.50
2014,08,24,01,58,12.50
2014,08,24,01,59,12.50
2014,08,24,02,00,12.50
2014,08,24,02,01,12.50
2014,08,24,02,02,12.50
2014,08,24,02,03,12.50
2014,08,24,02,04,12.40
2014,08,24,02,05,12.40
2014,08,24,02,06,12.40
2014,08,24,02,07,12.30
2014,08,24,02,08,12.30
2014,08,24,02,09,12.30
2014,08,24,02,10,12.30
2014,08,24,02,11,12.30
2014,08,24,02,12,12.30
2014,08,24,02,13,12.30
2014,08,24,02,14,12.30
2014,08,24,02,15,12.30
2014,08,24,02,16,12.30
2014,08,24,02,17,12.30
2014,08,24,02,18,12.30
2014,08,24,02,19,12.30
2014,08,24,02,20,12.30
2014,08,24,02,21,12.30
2014,08,24,02,22,12.30
2014,08,24,02,23,12.30
2014,08,24,02,24,12.30
2014,08,24,02,25,12.30
2014,08,24,02,26,12.30
2014,08,24,02,27,12.30
2014,08,24,02,28,12.30
2014,08,24,02,29,12.40
2014,08,24,02,30,12.40
2014,08,24,02,31,12.40
2014,08,24,02,32,12.40
2014,08,24,02,33,12.50
2014,08,24,02,34,12.50
2014,08,24,02,35,12.40
2014,08,24,02,36,12.50
2014,08,24,02,37,12.50
2014,08,24,02,38,12.50
2014,08,24,02,39,12.60
2014,08,24,02,40,12.60
2014,08,24,02,41,12.60
2014,08,24,02,42,12.60
2014,08,24,02,43,12.70
2014,08,24,02,44,12.70
2014,08,24,02,45,12.80
2014,08,24,02,46,12.80
2014,08,24,02,47,12.80
2014,08,24,02,48,12.90
2014,08,24,02,49,12.90
2014,08,24,02,50,12.90
2014,08,24,02,51,12.90
2014,08,24,02,52,12.90
2014,08,24,02,53,12.90
2014,08,24,02,54,12.90
2014,08,24,02,55,13.00
2014,08,24,02,56,12.90
2014,08,24,02,57,12.90
2014,08,24,02,58,12.90
2014,08,24,02,59,13.00
2014,08,24,03,00,13.00
2014,08,24,03,01,12.90
2014,08,24,03,02,13.00
2014,08,24,03,03,13.00
2014,08,24,03,04,13.00
2014,08,24,03,05,13.10
2014,08,24,03,06,13.10
2014,08,24,03,07,13.10
2014,08,24,03,08,13.10
2014,08,24,03,09,13.10
2014,08,24,03,10,13.10
2014,08,24,03,11,13.10
2014,08,24,03,12,13.10
2014,08,24,03,13,13.10
2014,08,24,03,14,13.10
2014,08,24,03,15,13.10
2014,08,24,03,16,13.10
2014,08,24,03,17,13.10
2014,08,24,03,18,13.10
2014,08,24,03,19,13.10
2014,08,24,03,20,13.10
2014,08,24,03,21,13.10
2014,08,24,03,22,13.10
2014,08,24,03,23,13.00
2014,08,24,03,24,13.00
2014,08,24,03,25,12.90
2014,08,24,03,26,12.90
2014,08,24,03,27,12.90
2014,08,24,03,28,12.80
2014,08,24,03,29,12.80
2014,08,24,03,30,12.80
2014,08,24,03,31,12.80
2014,08,24,03,32,12.80
2014,08,24,03,33,12.90
2014,08,24,03,34,12.90
2014,08,24,03,35,12.90
2014,08,24,03,36,13.00
2014,08,24,03,37,13.00
2014,08,24,03,38,13.00
2014,08,24,03,39,13.00
2014,08,24,03,40,13.00
2014,08,24,03,41,13.00
2014,08,24,03,42,13.00
2014,08,24,03,43,12.90
2014,08,24,03,44,12.90
2014,08,24,03,45,12.90
2014,08,24,03,46,12.90
2014,08,24,03,47,12.90
2014,08,24,03,48,12.80
2014,08,24,03,49,12.80
2014,08,24,03,50,12.80
2014,08,24,03,51,12.80
2014,08,24,03,52,12.80
2014,08,24,03,53,12.80
2014,08,24,03,54,12.80
2014,08,24,03,55,12.80
2014,08,24,03,56,12.70
2014,08,24,03,57,12.80
2014,08,24,03,58,12.70
2014,08,24,03,59,12.70
2014,08,24,04,00,12.70
2014,08,24,04,01,12.70
2014,08,24,04,02,12.70
2014,08,24,04,03,12.70
2014,08,24,04,04,12.70
2014,08,24,04,05,12.70
2014,08,24,04,06,12.70
2014,08,24,04,07,12.70
2014,08,24,04,08,12.70
2014,08,24,04,09,12.70
2014,08,24,04,25,12.80
2014,08,24,04,26,12.80
2014,08,24,04,27,12.80
2014,08,24,04,28,12.80
2014,08,24,04,29,12.80
2014,08,24,04,30,12.90
2014,08,24,04,31,12.90
2014,08,24,04,32,12.90
2014,08,24,04,33,12.90
2014,08,24,04,34,12.90
2014,08,24,04,35,13.00
2014,08,24,04,36,13.00
2014,08,24,04,37,13.00
2014,08,24,04,38,13.10
2014,08,24,04,39,13.10
2014,08,24,04,40,13.10
2014,08,24,04,41,13.10
2014,08,24,04,42,13.10
2014,08,24,04,43,13.10
2014,08,24,04,44,13.10
2014,08,24,04,45,13.10
2014,08,24,04,46,13.10
2014,08,24,04,47,13.10
2014,08,24,04,48,13.10
2014,08,24,04,49,13.10
2014,08,24,04,50,13.10
2014,08,24,04,51,13.10
2014,08,24,04,52,13.00
2014,08,24,04,53,13.00
2014,08,24,04,54,12.90
2014,08,24,04,55,12.90
2014,08,24,04,56,12.90
2014,08,24,04,57,12.80
2014,08,24,04,58,12.80
2014,08,24,04,59,12.80
2014,08,24,05,00,12.80
2014,08,24,05,01,12.70
2014,08,24,05,02,12.70
2014,08,24,05,03,12.70
2014,08,24,05,04,12.70
2014,08,24,05,05,12.70
2014,08,24,05,06,12.70
2014,08,24,05,07,12.70
2014,08,24,05,08,12.70
2014,08,24,05,09,12.70
2014,08,24,05,10,12.70
2014,08,24,05,11,12.70
2014,08,24,05,12,12.70
2014,08,24,05,13,12.70
2014,08,24,05,14,12.70
2014,08,24,05,15,12.70
2014,08,24,05,16,12.80
2014,08,24,05,17,12.80
2014,08,24,05,18,12.80
2014,08,24,05,19,12.70
2014,08,24,05,20,12.70
2014,08,24,05,21,12.70
2014,08,24,05,22,12.70
2014,08,24,05,23,12.70
2014,08,24,05,24,12.70
2014,08,24,05,25,12.80
2014,08,24,05,26,12.80
2014,08,24,05,27,12.80
2014,08,24,05,28,12.90
2014,08,24,05,29,12.90
2014,08,24,05,30,12.90
2014,08,24,05,31,12.90
2014,08,24,05,32,12.90
2014,08,24,05,33,13.00
2014,08,24,05,34,13.00
2014,08,24,05,35,13.00
2014,08,24,05,36,13.00
2014,08,24,05,37,13.00
2014,08,24,05,38,12.90
2014,08,24,05,39,12.90
2014,08,24,05,40,12.90
2014,08,24,05,41,12.90
2014,08,24,05,42,12.80
2014,08,24,05,43,12.80
2014,08,24,05,44,12.80
2014,08,24,05,45,12.80
2014,08,24,05,46,12.80
2014,08,24,05,47,12.80
2014,08,24,05,48,12.70
2014,08,24,05,49,12.70
2014,08,24,05,50,12.70
2014,08,24,05,51,12.70
2014,08,24,05,52,12.70
2014,08,24,05,53,12.70
2014,08,24,05,54,12.80
2014,08,24,05,55,12.80
2014,08,24,05,56,12.80
2014,08,24,05,57,12.80
2014,08,24,05,58,12.80
2014,08,24,05,59,12.90
2014,08,24,06,00,12.90
2014,08,24,06,01,12.90
2014,08,24,06,02,12.90
2014,08,24,06,03,12.90
2014,08,24,06,04,12.90
2014,08,24,06,05,12.90
2014,08,24,06,06,12.90
2014,08,24,06,07,12.90
2014,08,24,06,08,12.90
2014,08,24,06,09,12.90
2014,08,24,06,10,12.90
2014,08,24,06,11,12.90
2014,08,24,06,12,12.90
2014,08,24,06,13,12.90
2014,08,24,06,14,12.90
2014,08,24,06,15,12.90
2014,08,24,06,16,12.90
2014,08,24,06,17,12.90
2014,08,24,06,18,12.90
2014,08,24,06,19,12.90
2014,08,24,06,20,12.90
2014,08,24,06,21,12.90
2014,08,24,06,22,12.90
2014,08,24,06,23,12.90
2014,08,24,06,24,12.90
2014,08,24,06,25,12.80
2014,08,24,06,26,12.70
2014,08,24,06,27,12.60
2014,08,24,06,28,12.50
2014,08,24,06,29,12.30
2014,08,24,06,30,12.20
2014,08,24,06,31,12.10
2014,08,24,06,32,12.10
2014,08,24,06,33,12.00
2014,08,24,06,34,11.90
2014,08,24,06,35,11.90
2014,08,24,06,36,11.90
2014,08,24,06,37,11.90
2014,08,24,06,38,11.90
2014,08,24,06,39,11.90
2014,08,24,06,40,11.90
2014,08,24,06,41,11.90
2014,08,24,06,42,11.90
2014,08,24,06,43,11.90
2014,08,24,06,44,11.90
2014,08,24,06,45,11.90
2014,08,24,06,46,11.90
2014,08,24,06,47,11.90
2014,08,24,06,48,11.90
2014,08,24,06,49,12.00
2014,08,24,06,50,11.90
2014,08,24,06,51,12.00
2014,08,24,06,52,11.90
2014,08,24,06,53,11.90
2014,08,24,06,54,11.90
2014,08,24,06,55,12.00
2014,08,24,06,56,11.90
2014,08,24,06,57,11.90
2014,08,24,06,58,11.90
2014,08,24,06,59,11.90
2014,08,24,07,00,11.80
2014,08,24,07,01,11.80
2014,08,24,07,02,11.80
2014,08,24,07,03,11.80
2014,08,24,07,04,11.80
2014,08,24,07,05,11.80
2014,08,24,07,06,11.80
2014,08,24,07,07,11.80
2014,08,24,07,08,11.80
2014,08,24,07,09,11.80
2014,08,24,07,10,11.80
2014,08,24,07,11,11.80
2014,08,24,07,12,11.90
2014,08,24,07,13,11.90
2014,08,24,07,14,11.90
2014,08,24,07,15,11.90
2014,08,24,07,16,11.90
2014,08,24,07,17,11.90
2014,08,24,07,18,11.90
2014,08,24,07,19,11.90
2014,08,24,07,20,11.90
2014,08,24,07,21,11.90
2014,08,24,07,22,11.90
2014,08,24,07,23,11.80
2014,08,24,07,24,11.80
2014,08,24,07,25,11.80
2014,08,24,07,26,11.80
2014,08,24,07,27,11.80
2014,08,24,07,28,11.80
2014,08,24,07,29,11.80
2014,08,24,07,30,11.80
2014,08,24,07,31,11.80
2014,08,24,07,32,11.80
2014,08,24,07,33,11.80
2014,08,24,07,34,11.80
2014,08,24,07,35,11.80
2014,08,24,07,36,11.80
2014,08,24,07,37,11.80
2014,08,24,07,38,11.80
2014,08,24,07,39,11.80
2014,08,24,07,40,11.80
2014,08,24,07,41,11.80
2014,08,24,07,42,11.80
2014,08,24,07,43,11.80
2014,08,24,07,44,11.80
2014,08,24,07,45,11.80
2014,08,24,07,46,11.70
2014,08,24,07,47,11.70
2014,08,24,07,48,11.70
2014,08,24,07,49,11.70
2014,08,24,07,50,11.70
2014,08,24,07,51,11.70
2014,08,24,07,52,11.70
2014,08,24,07,53,11.70
2014,08,24,07,54,11.70
2014,08,24,07,55,11.70
2014,08,24,07,56,11.70
2014,08,24,07,57,11.70
2014,08,24,07,58,11.70
2014,08,24,07,59,11.70
2014,08,24,08,00,11.70
2014,08,24,08,01,11.70
2014,08,24,08,02,11.70
2014,08,24,08,03,11.70
2014,08,24,08,04,11.70
2014,08,24,08,05,11.70
2014,08,24,08,06,11.70
2014,08,24,08,07,11.70
2014,08,24,08,08,11.70
2014,08,24,08,09,11.70
2014,08,24,08,10,11.70
2014,08,24,08,11,11.70
2014,08,24,08,12,11.70
2014,08,24,08,13,11.70
2014,08,24,08,14,11.70
2014,08,24,08,15,11.70
2014,08,24,08,16,11.70
2014,08,24,08,17,11.70
2014,08,24,08,18,11.80
2014,08,24,08,19,11.80
2014,08,24,08,20,11.80
2014,08,24,08,21,11.80
2014,08,24,08,22,11.80
2014,08,24,08,23,11.90
2014,08,24,08,24,11.90
2014,08,24,08,25,12.00
2014,08,24,08,26,12.10
2014,08,24,08,27,12.10
2014,08,24,08,28,12.10
2014,08,24,08,29,12.10
2014,08,24,08,30,12.10
2014,08,24,08,31,12.10
2014,08,24,08,32,12.10
2014,08,24,08,33,12.00
2014,08,24,08,34,12.00
2014,08,24,08,35,12.00
2014,08,24,08,36,12.00
2014,08,24,08,37,12.00
2014,08,24,08,38,12.00
2014,08,24,08,39,12.00
2014,08,24,08,40,12.00
2014,08,24,08,41,12.00
2014,08,24,08,42,12.00
2014,08,24,08,43,12.00
2014,08,24,08,44,12.00
2014,08,24,08,45,11.90
2014,08,24,08,46,12.00
2014,08,24,08,47,11.90
2014,08,24,08,48,11.90
2014,08,24,08,49,12.00
2014,08,24,08,50,12.00
2014,08,24,08,51,12.00
2014,08,24,08,52,12.00
2014,08,24,08,53,12.00
2014,08,24,08,54,12.00
2014,08,24,08,55,12.00
2014,08,24,08,56,12.00
2014,08,24,08,57,12.00
2014,08,24,08,58,12.00
2014,08,24,08,59,12.00
2014,08,24,09,00,12.00
2014,08,24,09,01,12.00
2014,08,24,09,02,12.00
2014,08,24,09,03,12.00
2014,08,24,09,04,12.00
2014,08,24,09,05,12.00
2014,08,24,09,06,12.00
2014,08,24,09,07,12.00
2014,08,24,09,08,12.00
2014,08,24,09,09,12.00
2014,08,24,09,10,12.00
2014,08,24,09,11,11.90
2014,08,24,09,12,11.90
2014,08,24,09,13,11.90
2014,08,24,09,14,11.90
2014,08,24,09,15,11.90
2014,08,24,09,16,11.90
2014,08,24,09,17,11.90
2014,08,24,09,18,11.90
2014,08,24,09,19,11.90
2014,08,24,09,20,11.90
2014,08,24,09,21,11.90
2014,08,24,09,22,11.90
2014,08,24,09,23,11.90
2014,08,24,09,24,11.90
2014,08,24,09,25,11.90
2014,08,24,09,26,11.90
2014,08,24,09,27,11.90
2014,08,24,09,28,11.90
2014,08,24,09,29,11.90
2014,08,24,09,30,11.90
2014,08,24,09,31,11.90
2014,08,24,09,32,11.90
2014,08,24,09,33,11.90
2014,08,24,09,34,11.90
2014,08,24,09,35,11.90
2014,08,24,09,36,11.90
2014,08,24,09,37,11.90
2014,08,24,09,38,11.90
2014,08,24,09,39,11.90
2014,08,24,09,40,11.90
2014,08,24,09,41,11.90
2014,08,24,09,42,11.90
2014,08,24,09,43,11.90
2014,08,24,09,44,11.90
2014,08,24,09,45,11.90
2014,08,24,09,46,11.90
2014,08,24,09,47,11.90
2014,08,24,09,48,11.90
2014,08,24,09,49,12.00
2014,08,24,09,50,12.00
2014,08,24,09,51,12.00
2014,08,24,09,52,12.00
2014,08,24,09,53,12.10
2014,08,24,09,54,12.00
2014,08,24,09,55,12.00
2014,08,24,09,56,12.00
2014,08,24,09,57,12.00
2014,08,24,09,58,12.00
2014,08,24,09,59,12.00
2014,08,24,10,00,12.00
2014,08,24,10,01,12.10
2014,08,24,10,02,12.10
2014,08,24,10,03,12.10
2014,08,24,10,04,12.10
2014,08,24,10,05,12.00
2014,08,24,10,06,12.00
2014,08,24,10,07,12.00
2014,08,24,10,08,12.00
2014,08,24,10,09,11.90
2014,08,24,10,10,11.90
2014,08,24,10,11,11.90
2014,08,24,10,12,11.90
2014,08,24,10,13,11.90
2014,08,24,10,14,11.90
2014,08,24,10,15,11.90
2014,08,24,10,16,11.90
2014,08,24,10,17,11.90
2014,08,24,10,18,11.90
2014,08,24,10,19,11.90
2014,08,24,10,20,11.90
2014,08,24,10,21,11.90
2014,08,24,10,22,12.00
2014,08,24,10,23,12.10
2014,08,24,10,24,12.10
2014,08,24,10,25,12.00
2014,08,24,10,26,12.00
2014,08,24,10,27,11.90
2014,08,24,10,28,11.90
2014,08,24,10,29,11.90
2014,08,24,10,30,11.90
2014,08,24,10,31,11.90
2014,08,24,10,32,11.90
2014,08,24,10,33,11.90
2014,08,24,10,34,11.90
2014,08,24,10,35,11.90
2014,08,24,10,36,11.90
2014,08,24,10,37,11.90
2014,08,24,10,38,11.90
2014,08,24,10,39,12.00
2014,08,24,10,40,12.00
2014,08,24,10,41,12.00
2014,08,24,10,42,12.00
2014,08,24,10,43,12.00
2014,08,24,10,44,12.00
2014,08,24,10,45,12.00
2014,08,24,10,46,12.00
2014,08,24,10,47,12.10
2014,08,24,10,48,12.10
2014,08,24,10,49,12.10
2014,08,24,10,50,12.10
2014,08,24,10,51,12.10
2014,08,24,10,52,12.10
2014,08,24,10,53,12.10
2014,08,24,10,54,12.10
2014,08,24,10,55,12.10
2014,08,24,10,56,12.10
2014,08,24,10,57,12.10
2014,08,24,10,58,12.10
2014,08,24,10,59,12.10
2014,08,24,11,00,12.20
2014,08,24,11,01,12.20
2014,08,24,11,02,12.20
2014,08,24,11,03,12.20
2014,08,24,11,04,12.20
2014,08,24,11,05,12.20
2014,08,24,11,06,12.20
2014,08,24,11,07,12.20
2014,08,24,11,08,12.20
2014,08,24,11,09,12.20
2014,08,24,11,10,12.20
2014,08,24,11,11,12.20
2014,08,24,11,12,12.20
2014,08,24,11,13,12.20
2014,08,24,11,14,12.30
2014,08,24,11,15,12.30
2014,08,24,11,16,12.30
2014,08,24,11,17,12.30
2014,08,24,11,18,12.30
2014,08,24,11,19,12.30
2014,08,24,11,20,12.30
2014,08,24,11,21,12.30
2014,08,24,11,22,12.40
2014,08,24,11,23,12.40
2014,08,24,11,24,12.40
2014,08,24,11,25,12.40
2014,08,24,11,26,12.40
2014,08,24,11,27,12.40
2014,08,24,11,28,12.40
2014,08,24,11,29,12.40
2014,08,24,11,30,12.40
2014,08,24,11,31,12.40
2014,08,24,11,32,12.40
2014,08,24,11,33,12.40
2014,08,24,11,34,12.40
2014,08,24,11,35,12.40
2014,08,24,11,36,12.40
2014,08,24,11,37,12.40
2014,08,24,11,38,12.40
2014,08,24,11,39,12.40
2014,08,24,11,40,12.40
2014,08,24,11,41,12.40
2014,08,24,11,42,12.40
2014,08,24,11,43,12.40
2014,08,24,11,44,12.40
2014,08,24,11,45,12.40
2014,08,24,11,46,12.40
2014,08,24,11,47,12.40
2014,08,24,11,48,12.40
2014,08,24,11,49,12.40
2014,08,24,11,50,12.40
2014,08,24,11,51,12.40
2014,08,24,11,52,12.50
2014,08,24,11,53,12.50
2014,08,24,11,54,12.50
2014,08,24,11,55,12.50
2014,08,24,11,56,12.60
2014,08,24,11,57,12.60
2014,08,24,11,58,12.60
2014,08,24,11,59,12.60
2014,08,24,12,00,12.60
2014,08,24,12,01,12.60
2014,08,24,12,02,12.60
2014,08,24,12,03,12.60
2014,08,24,12,04,12.60
2014,08,24,12,05,12.60
2014,08,24,12,06,12.60
2014,08,24,12,07,12.60
2014,08,24,12,08,12.70
2014,08,24,12,09,12.70
2014,08,24,12,10,12.70
2014,08,24,12,11,12.70
2014,08,24,12,12,12.70
2014,08,24,12,13,12.70
2014,08,24,12,14,12.80
2014,08,24,12,15,12.80
2014,08,24,12,16,12.90
2014,08,24,12,17,12.90
2014,08,24,12,18,12.90
2014,08,24,12,19,12.90
2014,08,24,12,20,12.90
2014,08,24,12,21,13.10
2014,08,24,12,22,13.30
2014,08,24,12,23,13.40
2014,08,24,12,24,13.40
2014,08,24,12,25,13.40
2014,08,24,12,26,13.40
2014,08,24,12,27,13.40
2014,08,24,12,28,13.50
2014,08,24,12,29,13.60
2014,08,24,12,30,13.70
2014,08,24,12,31,13.80
2014,08,24,12,32,13.80
2014,08,24,12,33,13.80
2014,08,24,12,34,13.80
2014,08,24,12,35,13.70
2014,08,24,12,36,13.70
2014,08,24,12,37,13.70
2014,08,24,12,38,13.70
2014,08,24,12,39,13.60
2014,08,24,12,40,13.50
2014,08,24,12,41,13.50
2014,08,24,12,42,13.50
2014,08,24,12,43,13.50
2014,08,24,12,44,13.40
2014,08,24,12,45,13.40
2014,08,24,12,46,13.30
2014,08,24,12,47,13.30
2014,08,24,12,48,13.30
2014,08,24,12,49,13.30
2014,08,24,12,50,13.30
2014,08,24,12,51,13.30
2014,08,24,12,52,13.40
2014,08,24,12,53,13.40
2014,08,24,12,54,13.40
2014,08,24,12,55,13.40
2014,08,24,12,56,13.40
2014,08,24,12,57,13.30
2014,08,24,12,58,13.20
2014,08,24,12,59,13.20
2014,08,24,13,00,13.20
2014,08,24,13,01,13.30
2014,08,24,13,02,13.30
2014,08,24,13,03,13.30
2014,08,24,13,04,13.30
2014,08,24,13,05,13.30
2014,08,24,13,06,13.50
2014,08,24,13,07,13.50
2014,08,24,13,08,13.40
2014,08,24,13,09,13.30
2014,08,24,13,10,13.30
2014,08,24,13,11,13.20
2014,08,24,13,12,13.20
2014,08,24,13,13,13.20
2014,08,24,13,14,13.20
2014,08,24,13,15,13.10
2014,08,24,13,16,13.10
2014,08,24,13,17,13.10
2014,08,24,13,18,13.10
2014,08,24,13,19,13.10
2014,08,24,13,20,13.20
2014,08,24,13,21,13.20
2014,08,24,13,22,13.10
2014,08,24,13,23,13.10
2014,08,24,13,24,13.00
2014,08,24,13,25,13.00
2014,08,24,13,26,13.00
2014,08,24,13,27,13.00
2014,08,24,13,28,13.00
2014,08,24,13,29,12.90
2014,08,24,13,30,12.90
2014,08,24,13,31,12.90
2014,08,24,13,32,12.90
2014,08,24,13,33,13.00
2014,08,24,13,34,12.90
2014,08,24,13,35,12.90
2014,08,24,13,36,12.90
2014,08,24,13,37,12.90
2014,08,24,13,38,12.90
2014,08,24,13,39,12.90
2014,08,24,13,40,13.00
2014,08,24,13,41,13.00
2014,08,24,13,42,12.90
2014,08,24,13,43,13.00
2014,08,24,13,44,12.90
2014,08,24,13,45,13.00
2014,08,24,13,46,13.00
2014,08,24,13,47,13.00
2014,08,24,13,48,13.00
2014,08,24,13,49,13.00
2014,08,24,13,50,13.00
2014,08,24,13,51,13.10
2014,08,24,13,52,13.10
2014,08,24,13,53,13.20
2014,08,24,13,54,13.20
2014,08,24,13,55,13.30
2014,08,24,13,56,13.40
2014,08,24,13,57,13.50
2014,08,24,13,58,13.60
2014,08,24,13,59,13.60
2014,08,24,14,00,13.60
2014,08,24,14,01,13.60
2014,08,24,14,02,13.60
2014,08,24,14,03,13.60
2014,08,24,14,04,13.60
2014,08,24,14,05,13.60
2014,08,24,14,06,13.70
2014,08,24,14,07,13.90
2014,08,24,14,08,13.90
2014,08,24,14,09,14.00
2014,08,24,14,10,14.10
2014,08,24,14,11,14.20
2014,08,24,14,12,14.40
2014,08,24,14,13,14.60
2014,08,24,14,14,14.90
2014,08,24,14,15,15.10
2014,08,24,14,16,15.30
2014,08,24,14,17,15.50
2014,08,24,14,18,15.50
2014,08,24,14,19,15.40
2014,08,24,14,20,15.30
2014,08,24,14,21,15.30
2014,08,24,14,22,15.40
2014,08,24,14,23,15.50
2014,08,24,14,24,15.70
2014,08,24,14,25,15.70
2014,08,24,14,26,15.60
2014,08,24,14,27,15.50
2014,08,24,14,28,15.40
2014,08,24,14,29,15.30
2014,08,24,14,30,15.40
2014,08,24,14,31,15.40
2014,08,24,14,32,15.40
2014,08,24,14,33,15.40
2014,08,24,14,34,15.30
2014,08,24,14,35,15.30
2014,08,24,14,36,15.30
2014,08,24,14,37,15.20
2014,08,24,14,38,15.10
2014,08,24,14,39,15.00
2014,08,24,14,40,15.00
2014,08,24,14,41,15.00
2014,08,24,14,42,15.10
2014,08,24,14,43,15.00
2014,08,24,14,44,15.00
2014,08,24,14,45,15.00
2014,08,24,14,46,14.90
2014,08,24,14,47,14.90
2014,08,24,14,48,14.90
2014,08,24,14,49,15.10
2014,08,24,14,50,15.30
2014,08,24,14,51,15.30
2014,08,24,14,52,15.20
2014,08,24,14,53,15.10
2014,08,24,14,54,15.10
2014,08,24,14,55,15.00
2014,08,24,14,56,14.80
2014,08,24,14,57,14.80
2014,08,24,14,58,14.80
2014,08,24,14,59,14.80
2014,08,24,15,00,14.90
2014,08,24,15,01,14.90
2014,08,24,15,02,14.80
2014,08,24,15,03,14.80
2014,08,24,15,04,14.90
2014,08,24,15,05,14.90
2014,08,24,15,06,15.00
2014,08,24,15,07,15.20
2014,08,24,15,08,15.20
2014,08,24,15,09,15.30
2014,08,24,15,10,15.30
2014,08,24,15,11,15.30
2014,08,24,15,12,15.50
2014,08,24,15,13,15.60
2014,08,24,15,14,15.80
2014,08,24,15,15,16.00
2014,08,24,15,16,16.00
2014,08,24,15,17,15.90
2014,08,24,15,18,15.70
2014,08,24,15,19,15.50
2014,08,24,15,20,15.40
2014,08,24,15,21,15.30
2014,08,24,15,22,15.10
2014,08,24,15,23,15.00
2014,08,24,15,24,14.90
2014,08,24,15,25,14.90
2014,08,24,15,26,14.80
2014,08,24,15,27,14.80
2014,08,24,15,28,14.80
2014,08,24,15,29,14.80
2014,08,24,15,30,14.80
2014,08,24,15,31,14.80
2014,08,24,15,32,14.90
2014,08,24,15,33,15.10
2014,08,24,15,34,15.20
2014,08,24,15,35,15.50
2014,08,24,15,36,15.60
2014,08,24,15,37,15.80
2014,08,24,15,38,15.80
2014,08,24,15,39,15.90
2014,08,24,15,40,16.00
2014,08,24,15,41,16.10
2014,08,24,15,42,16.10
2014,08,24,15,43,16.10
2014,08,24,15,44,16.10
2014,08,24,15,45,16.10
2014,08,24,15,46,16.20
2014,08,24,15,47,16.30
2014,08,24,15,48,16.30
2014,08,24,15,49,16.30
2014,08,24,15,50,16.40
2014,08,24,15,51,16.40
2014,08,24,15,52,16.40
2014,08,24,15,53,16.50
2014,08,24,15,54,16.60
2014,08,24,15,55,16.60
2014,08,24,15,56,16.60
2014,08,24,15,57,16.70
2014,08,24,15,58,16.80
2014,08,24,15,59,16.90
2014,08,24,16,00,16.90
2014,08,24,16,01,16.90
2014,08,24,16,02,17.00
2014,08,24,16,03,16.90
2014,08,24,16,04,16.90
2014,08,24,16,05,16.90
2014,08,24,16,06,16.90
2014,08,24,16,07,16.90
2014,08,24,16,08,16.90
2014,08,24,16,09,17.00
2014,08,24,16,10,17.10
2014,08,24,16,11,17.10
2014,08,24,16,12,17.10
2014,08,24,16,13,17.10
2014,08,24,16,14,17.00
2014,08,24,16,15,16.90
2014,08,24,16,16,16.90
2014,08,24,16,17,17.00
2014,08,24,16,18,17.00
2014,08,24,16,19,17.10
2014,08,24,16,20,17.10
2014,08,24,16,21,17.10
2014,08,24,16,22,17.20
2014,08,24,16,23,17.20
2014,08,24,16,24,17.30
2014,08,24,16,25,17.40
2014,08,24,16,26,17.40
2014,08,24,16,27,17.50
2014,08,24,16,28,17.50
2014,08,24,16,29,17.50
2014,08,24,16,30,17.50
2014,08,24,16,31,17.50
2014,08,24,16,32,17.60
2014,08,24,16,33,17.60
2014,08,24,16,34,17.60
2014,08,24,16,35,17.70
2014,08,24,16,36,17.70
2014,08,24,16,37,17.70
2014,08,24,16,38,17.80
2014,08,24,16,39,17.80
2014,08,24,16,40,17.80
2014,08,24,16,41,17.90
2014,08,24,16,42,17.90
2014,08,24,16,43,17.90
2014,08,24,16,44,18.00
2014,08,24,16,45,18.00
2014,08,24,16,46,18.00
2014,08,24,16,47,18.00
2014,08,24,16,48,18.00
2014,08,24,16,49,18.00
2014,08,24,16,50,18.10
2014,08,24,16,51,18.10
2014,08,24,16,52,18.10
2014,08,24,16,53,18.10
2014,08,24,16,54,18.10
2014,08,24,16,55,18.10
2014,08,24,16,56,18.10
2014,08,24,16,57,18.10
2014,08,24,16,58,18.10
2014,08,24,16,59,18.10
2014,08,24,17,00,18.20
2014,08,24,17,01,18.20
2014,08,24,17,02,18.20
2014,08,24,17,03,18.20
2014,08,24,17,04,18.20
2014,08,24,17,05,18.20
2014,08,24,17,06,18.20
2014,08,24,17,07,18.20
2014,08,24,17,08,18.20
2014,08,24,17,09,18.10
2014,08,24,17,10,18.10
2014,08,24,17,11,18.10
2014,08,24,17,12,18.10
2014,08,24,17,13,18.10
2014,08,24,17,14,18.20
2014,08,24,17,15,18.20
2014,08,24,17,16,18.20
2014,08,24,17,17,18.20
2014,08,24,17,18,18.10
2014,08,24,17,19,18.10
2014,08,24,17,20,18.10
2014,08,24,17,21,18.10
2014,08,24,17,22,18.10
2014,08,24,17,23,18.10
2014,08,24,17,24,18.10
2014,08,24,17,25,18.10
2014,08,24,17,26,18.20
2014,08,24,17,27,18.20
2014,08,24,17,28,18.30
2014,08,24,17,29,18.30
2014,08,24,17,30,18.10
2014,08,24,17,31,17.50
2014,08,24,17,32,16.70
2014,08,24,17,33,16.30
2014,08,24,17,34,16.50